Alabaster, AL

11:17 PM CDT on September 30, 2016 (GMT -0500)
Shelby County

Weather History for KEET - July, 2014

Change the Weather History Date:

Wednesday, July 16, 2014

  Actual Average Record
Temperature  
Mean Temperature 75 °F 81 °F  
Max Temperature 85 °F 91 °F 104 °F (1980)
Min Temperature 65 °F 71 °F 53 °F (1967)
Cooling Degree Days 10 16  
Month to date cooling degree days 245 248  
Year to date cooling degree days 954 891  
Since 1 June cooling degree days 660 622  
Growing Degree Days 25 (Base 50)    
Moisture  
Dew Point 57 °F    
Average Humidity 61    
Maximum Humidity 90    
Minimum Humidity 32    
Precipitation  
Precipitation 0.00 in 0.16 in 2.14 in (1971)
Month to date precipitation 0.20 2.48  
Year to date precipitation 33.01 31.04  
Sea Level Pressure  
Sea Level Pressure 29.95 in    
Wind  
Wind Speed 5 mph (NNW)    
Max Wind Speed 13 mph    
Max Gust Speed 21 mph    
Visibility 10 miles    
Events      
T = Trace of Precipitation, MM = Missing Value Source: NWS Daily Summary

Daily Weather History Graph

Daily Weather History Graph

Search for Another Location

Airport or City:

Trip Planner

Search our weather history database for the weather conditions in past years. The results will help you decide how hot, cold, wet, or windy it might be!

Date:

Astronomy

Jul. 16, 2014 Rise Set
Actual Time 5:49 AM CDT 7:56 PM CDT
Civil Twilight 5:21 AM CDT 8:24 PM CDT
Nautical Twilight 4:47 AM CDT 8:58 PM CDT
Astronomical Twilight 4:10 AM CDT 9:35 PM CDT
Moon 10:59 PM CDT (7/16) 10:35 AM CDT (7/16)
Length of Visible Light 15h 03m
Length of Day
14h 06m
Waning Gibbous, 76% of the Moon is Illuminated
Jul 16
Waning Gibbous
Jul 18
Last Quarter
Jul 26
New
Aug 3
First Quarter
Aug 10
Full

Hourly Weather History & Observations

Time (CDT) Temp. Heat Index Dew Point Humidity Pressure Visibility Wind Dir Wind Speed Gust Speed Precip Events Conditions
12:53 AM 70.0 °F - 66.0 °F 87% 29.91 in 10.0 mi Calm Calm - N/A   Clear
1:53 AM 69.1 °F - 62.1 °F 78% 29.91 in 10.0 mi North 4.6 mph - N/A   Clear
2:53 AM 68.0 °F - 60.1 °F 76% 29.92 in 10.0 mi Calm Calm - N/A   Clear
3:53 AM 66.9 °F - 60.1 °F 79% 29.92 in 10.0 mi NNW 4.6 mph - N/A   Clear
4:53 AM 66.0 °F - 61.0 °F 84% 29.93 in 10.0 mi Calm Calm - N/A   Clear
5:53 AM 66.0 °F - 60.1 °F 81% 29.94 in 10.0 mi North 4.6 mph - N/A   Clear
6:53 AM 66.9 °F - 59.0 °F 76% 29.95 in 10.0 mi North 5.8 mph - N/A   Clear
7:53 AM 70.0 °F - 59.0 °F 68% 29.96 in 10.0 mi Variable 4.6 mph - N/A   Clear
8:53 AM 72.0 °F - 60.1 °F 66% 29.96 in 10.0 mi NNW 6.9 mph - N/A   Clear
9:53 AM 75.9 °F - 57.9 °F 54% 29.97 in 10.0 mi North 4.6 mph - N/A   Clear
10:53 AM 78.1 °F - 55.9 °F 46% 29.97 in 10.0 mi Variable 6.9 mph - N/A   Clear
11:53 AM 80.1 °F 80.0 °F 54.0 °F 40% 29.97 in 10.0 mi Calm Calm - N/A   Clear
12:53 PM 82.0 °F 81.3 °F 54.0 °F 38% 29.96 in 10.0 mi NNW 8.1 mph - N/A   Clear
1:53 PM 82.0 °F 81.2 °F 53.1 °F 37% 29.95 in 10.0 mi Variable 4.6 mph - N/A   Clear
2:53 PM 84.0 °F 82.6 °F 54.0 °F 35% 29.94 in 10.0 mi WNW 4.6 mph - N/A   Clear
3:53 PM 84.0 °F - 51.1 °F 32% 29.93 in 10.0 mi North 6.9 mph - N/A   Clear
4:53 PM 84.0 °F - 52.0 °F 33% 29.92 in 10.0 mi Variable 5.8 mph - N/A   Clear
5:53 PM 84.0 °F - 51.1 °F 32% 29.92 in 10.0 mi NNW 5.8 mph - N/A   Clear
6:53 PM 81.0 °F - 52.0 °F 36% 29.93 in 10.0 mi NW 9.2 mph - N/A   Clear
7:53 PM 77.0 °F - 53.1 °F 43% 29.93 in 10.0 mi NNW 5.8 mph - N/A   Clear
8:53 PM 73.9 °F - 54.0 °F 50% 29.96 in 10.0 mi North 5.8 mph - N/A   Clear
9:53 PM 71.1 °F - 55.9 °F 59% 29.98 in 10.0 mi NNW 3.5 mph - N/A   Clear
10:53 PM 69.1 °F - 55.9 °F 63% 29.97 in 10.0 mi North 3.5 mph - N/A   Clear
11:53 PM 70.0 °F - 55.0 °F 59% 29.98 in 10.0 mi North 5.8 mph - N/A   Clear